Wind_Speed
61 62 63 64 63 61 62 63 63 64 64 66 65 61 63 62 58 59 56 52 49 46 41 36 33 34 30 28 29 27 25 23
63 66 67 70 72 76 78 75 74 70 70 69 69 68 64 64 66 62 62 55 52 50 44 39 38 36 33 31 30 29 28 28
62 59 56 58 56 56 63 71 69 75 78 77 75 72 69 67 68 70 66 50 50 50 50 46 41 39 36 35 32 32 32 32
43 37 39 44 49 51 50 49 52 55 62 77 81 79 74 71 68 67 66 58 55 57 57 53 46 45 39 37 35 34 34 34
40 43 44 50 55 52 48 43 46 48 52 52 75 83 79 74 73 69 65 64 62 62 59 59 51 49 43 43 38 39 38 37
44 48 49 54 54 42 44 49 49 50 55 58 53 78 84 79 75 71 67 68 63 64 66 62 58 53 46 47 42 41 40 40
45 50 52 54 42 42 43 40 46 51 52 54 55 55 84 84 78 72 69 69 63 66 73 68 63 58 53 50 49 43 43 44
42 44 50 42 36 37 39 38 45 46 46 47 46 52 70 88 83 75 74 71 64 71 74 81 71 63 62 55 53 47 47 46
40 45 36 35 31 34 38 33 33 27 24 32 39 45 55 87 86 78 77 75 68 71 38 67 69 66 65 59 55 53 52 50
38 38 35 29 29 29 31 28 41 33 19 23 30 38 47 76 87 83 79 69 62 70 60 73 66 58 60 68 68 58 57 52
34 36 34 23 26 20 25 24 30 17 8 10 7 20 34 57 82 83 76 75 73 61 53 35 58 57 51 31 57 53 49 46
33 32 31 19 20 24 25 25 31 30 4 1 14 5 19 48 63 76 79 63 69 45 39 69 67 60 61 61 61 60 48 42
28 24 20 18 21 19 19 22 13 32 6 13 14 15 7 27 54 65 76 76 56 69 51 51 42 46 61 61 65 49 41 45
24 22 22 22 19 15 17 15 6 17 20 6 12 16 6 27 39 54 67 67 57 41 41 28 44 41 33 27 43 53 51 52
23 25 25 22 23 21 14 16 4 10 5 11 4 8 7 13 29 28 36 40 54 54 54 33 50 33 36 28 43 44 39 46
19 19 17 18 19 18 18 14 15 13 3 3 4 3 5 9 23 45 43 32 33 45 35 26 27 34 35 36 41 45 50 55
19 18 16 11 11 14 14 4 5 8 3 4 4 17 14 6 27 24 27 31 33 36 43 48 44 44 49 60 56 51 53 59
16 14 13 9 9 7 9 11 15 10 3 10 14 8 9 9 11 25 30 31 29 35 45 49 51 52 54 56 58 54 57 49
9 6 6 9 13 15 11 11 12 14 15 17 15 15 13 7 5 7 22 20 19 24 23 25 26 31 33 36 40 45 44 44
Wind_Direction
291 289 288 286 282 275 270 267 260 258 256 253 250 248 252 248 246 247 242 243 245 246 242 245 245 247 249 254 258 253 254 262
292 290 288 287 284 279 275 268 263 256 253 250 249 245 244 247 246 245 239 235 242 249 248 248 249 248 247 250 256 260 258 258
294 292 289 287 285 282 279 271 267 256 245 246 244 245 240 240 243 245 255 233 238 246 247 246 250 251 248 247 249 254 257 259
297 295 297 300 297 290 286 279 276 271 255 240 237 239 240 236 238 241 243 242 241 245 242 245 244 247 247 248 248 252 258 260
299 296 299 302 303 296 290 281 278 269 266 259 237 230 233 235 232 235 237 239 242 240 244 242 245 246 247 248 246 249 254 260
299 296 296 301 303 302 291 291 287 278 266 262 256 232 225 229 230 231 233 234 235 238 240 242 242 246 247 252 247 246 250 254
297 299 296 303 297 306 299 304 286 275 263 270 252 248 222 221 225 226 229 232 231 240 233 236 237 240 243 249 250 247 248 253
300 299 303 303 298 310 310 298 304 289 273 259 242 238 228 216 219 220 226 228 227 240 227 229 232 233 237 238 245 246 246 250
306 308 305 309 299 300 319 313 304 300 287 250 236 226 232 214 214 215 221 224 227 235 228 222 234 239 241 236 242 242 242 246
312 308 307 311 302 321 321 325 314 293 279 288 239 228 231 216 211 213 218 219 227 234 251 224 220 229 251 232 234 235 235 239
317 312 314 310 323 319 350 345 348 323 300 229 233 232 230 218 212 211 214 220 226 234 224 225 225 237 239 230 213 225 232 238
318 321 322 302 325 320 323 349 340 356 2 203 224 2 228 214 214 210 209 222 224 232 241 240 253 249 249 227 234 229 235 247
329 329 342 320 312 323 329 347 331 3 134 103 116 109 153 221 216 211 209 216 232 251 237 257 262 242 230 238 231 232 236 243
338 342 360 359 341 314 337 342 355 9 24 24 73 327 271 228 223 220 216 224 235 245 249 255 238 232 235 268 252 239 239 245
342 347 353 356 359 6 337 329 25 21 23 337 84 215 243 199 210 211 222 246 239 239 240 256 252 241 235 235 246 263 271 263
343 342 346 12 8 359 353 331 311 329 304 225 266 273 165 250 211 219 238 257 265 246 234 260 256 252 265 272 276 276 272 272
339 340 337 351 13 33 33 354 258 283 81 145 181 236 247 233 217 224 237 243 245 247 251 260 267 269 266 264 269 274 274 270
328 335 347 337 2 14 28 47 65 89 157 246 255 237 203 219 219 225 236 242 245 251 255 258 266 272 271 272 273 271 274 262
315 322 357 13 18 16 33 45 45 47 55 60 62 64 74 129 169 202 231 249 260 266 267 264 267 267 269 269 270 269 272 275
Height
5729 5728 5727 5724 5723 5726 5725 5724 5725 5725 5727 5730 5734 5742 5746 5750 5754 5757 5762 5763 5769 5771 5776 5780 5784 5787 5789 5791 5791 5791 5793 5795
5714 5710 5706 5702 5701 5700 5698 5699 5700 5703 5705 5710 5714 5721 5728 5735 5740 5744 5744 5747 5757 5761 5766 5769 5775 5777 5781 5781 5783 5786 5787 5787
5695 5689 5683 5679 5676 5673 5669 5667 5668 5671 5679 5683 5691 5699 5709 5717 5721 5729 5734 5737 5743 5748 5754 5759 5765 5767 5770 5772 5774 5776 5777 5778
5680 5675 5671 5667 5663 5658 5654 5650 5647 5643 5647 5654 5662 5675 5688 5698 5707 5713 5722 5731 5730 5734 5742 5746 5752 5754 5760 5762 5765 5767 5769 5771
5669 5665 5660 5654 5648 5642 5638 5635 5632 5629 5627 5629 5635 5647 5663 5678 5688 5698 5707 5714 5721 5723 5729 5733 5740 5744 5748 5752 5755 5757 5758 5760
5662 5656 5650 5643 5636 5629 5625 5621 5616 5613 5609 5609 5613 5622 5640 5655 5668 5680 5691 5697 5708 5710 5712 5722 5729 5731 5737 5740 5745 5748 5750 5751
5653 5647 5640 5632 5624 5619 5612 5605 5598 5592 5589 5587 5593 5601 5616 5631 5649 5663 5675 5681 5694 5700 5697 5699 5710 5716 5724 5729 5733 5738 5741 5742
5644 5639 5632 5623 5616 5609 5602 5593 5583 5572 5567 5566 5570 5582 5592 5609 5627 5646 5657 5665 5679 5665 5639 5667 5683 5699 5706 5716 5721 5728 5731 5733
5636 5629 5622 5614 5608 5601 5594 5584 5576 5565 5556 5552 5556 5563 5573 5588 5606 5629 5640 5651 5663 5660 5648 5636 5677 5686 5693 5703 5707 5714 5717 5719
5628 5621 5613 5606 5601 5594 5589 5579 5569 5560 5549 5547 5548 5553 5560 5573 5593 5611 5628 5638 5653 5662 5663 5636 5665 5679 5679 5683 5688 5696 5701 5706
5622 5615 5608 5601 5595 5591 5584 5576 5564 5553 5547 5545 5543 5547 5553 5564 5579 5597 5617 5628 5640 5648 5653 5647 5660 5671 5674 5647 5660 5679 5688 5694
5618 5611 5603 5597 5592 5587 5583 5575 5567 5554 5549 5543 5545 5551 5557 5561 5576 5592 5607 5619 5633 5637 5638 5646 5654 5661 5664 5663 5665 5669 5679 5685
5617 5610 5601 5594 5590 5585 5582 5576 5570 5561 5552 5557 5561 5561 5556 5564 5578 5589 5602 5607 5616 5618 5634 5636 5642 5645 5650 5652 5657 5667 5671 5674
5614 5607 5599 5594 5589 5585 5583 5580 5574 5573 5571 5572 5570 5566 5566 5571 5581 5589 5601 5607 5618 5624 5631 5636 5640 5639 5642 5647 5654 5656 5659 5663
5613 5607 5601 5595 5589 5585 5584 5583 5579 5578 5576 5576 5576 5570 5571 5575 5585 5590 5601 5606 5611 5617 5623 5628 5631 5632 5635 5639 5646 5648 5650 5652
5613 5609 5604 5598 5593 5589 5586 5585 5583 5581 5579 5579 5578 5578 5577 5580 5584 5591 5595 5601 5608 5614 5615 5620 5622 5624 5626 5629 5631 5634 5637 5637
5613 5609 5605 5601 5597 5593 5590 5587 5584 5583 5581 5579 5579 5579 5578 5580 5584 5588 5593 5599 5604 5607 5610 5609 5610 5612 5614 5616 5620 5621 5622 5622
5612 5608 5604 5601 5598 5594 5592 5589 5587 5583 5582 5581 5581 5580 5579 5579 5580 5586 5589 5594 5597 5601 5602 5604 5603 5603 5604 5606 5607 5609 5610 5610
5609 5606 5603 5600 5597 5594 5592 5589 5587 5585 5583 5582 5582 5581 5580 5580 5582 5584 5587 5588 5591 5593 5595 5595 5595 5596 5595 5595 5595 5594 5594 5594